This demonstration page uses our WeatherBlox Daily Observations layout. Learn more.

Left ArrowRight Arrow

53.62937, 11.41316

Hourly Observations for November 13, 2020

Temp ( °F °C ) Dew Point ( °F °C ) Humidity (%) Winds ( mph kmh ) Pressure ( in mb ) Visibility ( mi km ) Precip ( " mm )
7:20 am 07:20 Cloudy with Mist and Fog 46 8 46 8 100 100 S 7 11 30.06 1018 2 4 N/A
7:50 am 07:50 Cloudy with Mist and Fog 46 8 46 8 100 100 S 6 9 30.06 1018 3 5 N/A
8:20 am 08:20 Mostly Cloudy with Mist and Fog 45 7 45 7 100 100 S 6 9 30.06 1018 3 5 N/A
8:50 am 08:50 Mostly Cloudy with Mist and Fog 46 8 45 7 93 93 S 5 7 30.06 1018 2 4 N/A
9:20 am 09:20 Cloudy with Mist and Fog 45 7 45 7 100 100 S 6 9 30.06 1018 2 4 N/A
9:50 am 09:50 Cloudy with Mist and Fog 46 8 46 8 100 100 SSE 6 9 30.06 1018 2 4 N/A
10:20 am 10:20 Mostly Cloudy with Mist and Fog 46 8 46 8 100 100 SSE 5 7 30.06 1018 3 5 N/A
10:50 am 10:50 Mostly Cloudy 46 8 46 8 100 100 S 5 7 30.03 1017 5 8 N/A
11:20 am 11:20 Mostly Cloudy 48 9 45 7 87 87 S 8 13 30.03 1017 30 48 N/A
11:50 am 11:50 Mostly Sunny 50 10 45 7 82 82 S 6 9 30.03 1017 30 48 N/A
12:20 pm 12:20 Mostly Sunny 50 10 45 7 82 82 SSE 7 11 30.03 1017 30 48 N/A
12:50 pm 12:50 Mostly Sunny 52 11 45 7 77 77 SSE 7 11 30.03 1017 7 11 N/A
1:20 pm 13:20 Mostly Sunny 52 11 45 7 77 77 SSE 7 11 30.00 1016 7 11 N/A
1:50 pm 13:50 Mostly Sunny 52 11 45 7 77 77 SSE 7 11 30.00 1016 7 11 N/A
2:20 pm 14:20 Mostly Sunny 52 11 45 7 77 77 SSE 7 11 30.00 1016 7 11 N/A
2:50 pm 14:50 Mostly Sunny 52 11 45 7 77 77 SE 6 9 30.00 1016 7 11 N/A
3:20 pm 15:20 Mostly Sunny 52 11 45 7 77 77 ESE 5 7 29.97 1015 7 11 N/A
3:50 pm 15:50 Mostly Sunny 50 10 45 7 82 82 SE 6 9 29.97 1015 7 11 N/A
4:20 pm 16:20 Mostly Sunny 48 9 45 7 87 87 SSE 6 9 29.97 1015 7 11 N/A
4:50 pm 16:50 Mostly Clear 48 9 43 6 82 82 SE 3 6 29.97 1015 7 11 N/A
5:20 pm 17:20 Mostly Clear 48 9 45 7 87 87 SSE 5 7 29.97 1015 7 11 N/A
5:50 pm 17:50 Mostly Clear 48 9 45 7 87 87 SE 6 9 29.97 1015 7 11 N/A
6:20 pm 18:20 Mostly Clear 46 8 45 7 93 93 SSE 6 9 29.97 1015 30 48 N/A
6:50 pm 18:50 Partly Cloudy 46 8 45 7 93 93 SE 7 11 29.97 1015 30 48 N/A
7:20 pm 19:20 Mostly Cloudy 48 9 45 7 87 87 SE 6 9 29.97 1015 30 48 N/A
7:50 pm 19:50 Mostly Cloudy 48 9 45 7 87 87 SE 7 11 29.97 1015 30 48 N/A
8:20 pm 20:20 Mostly Cloudy 48 9 45 7 87 87 SE 5 7 29.97 1015 30 48 N/A
8:50 pm 20:50 Mostly Cloudy 48 9 45 7 87 87 SSE 5 7 29.97 1015 30 48 N/A
9:20 pm 21:20 Mostly Cloudy 48 9 45 7 87 87 SE 5 7 29.97 1015 5 8 N/A
9:50 pm 21:50 Mostly Cloudy 48 9 46 8 94 94 SE 5 7 29.97 1015 5 8 N/A

Powered by AerisWeather